Le nostre stazioni meteo in Italia

Pubblicità
Il mio iltempo24.it
Elphin, Gran Bretagna (99153): Temperatura & dewpoint: 22.06.2017 23:00:00 - 28.06.2017 23:00:00 (BST)Elphin, Gran Bretagna (99153): visibility: 22.06.2017 23:00:00 - 28.06.2017 23:00:00 (BST)Elphin, Gran Bretagna (99153): precipitazioni: 22.06.2017 23:00:00 - 28.06.2017 23:00:00 (BST)
Data & Tempo tt [°C] td [°C] vv [km] rr [mm]
28.06.2017 23:00:00 8,8 4,2 - 0,0
28.06.2017 22:00:00 8,9 4,0 - 0,0
28.06.2017 21:00:00 10,0 4,9 - 0,0
28.06.2017 20:00:00 11,1 5,7 - 0,0
28.06.2017 19:00:00 12,3 6,5 - 0,0
28.06.2017 18:00:00 13,6 6,4 - 0,0
28.06.2017 17:00:00 14,6 7,3 - 0,0
28.06.2017 16:00:00 13,8 7,4 - 0,0
28.06.2017 15:00:00 14,6 6,7 - 0,0
28.06.2017 14:00:00 13,9 6,8 - 0,0
28.06.2017 13:00:00 15,0 8,3 - 0,0
28.06.2017 12:00:00 14,0 7,4 - 0,0
28.06.2017 11:00:00 13,7 8,5 - 0,0
28.06.2017 10:00:00 12,6 8,7 - 0,0
28.06.2017 09:00:00 11,4 8,4 - 0,0
28.06.2017 08:00:00 10,4 8,3 - 0,0
28.06.2017 07:00:00 10,3 8,3 - 0,0
28.06.2017 06:00:00 10,1 8,3 - 0,0
28.06.2017 05:00:00 10,0 8,3 - 0,0
28.06.2017 04:00:00 10,0 8,3 - 0,0
28.06.2017 03:00:00 9,8 8,2 - 0,0
28.06.2017 02:00:00 9,5 7,9 - 0,0
28.06.2017 01:00:00 9,7 8,0 - 0,0
28.06.2017 00:00:00 10,0 8,0 - -
27.06.2017 23:00:00 10,0 8,0 - 0,0
27.06.2017 22:00:00 10,1 8,1 - 0,0
27.06.2017 21:00:00 10,1 8,1 - 0,0
27.06.2017 20:00:00 10,5 8,2 - 0,0
27.06.2017 19:00:00 10,7 8,3 - 0,0
27.06.2017 18:00:00 11,0 8,1 - 0,0
27.06.2017 17:00:00 11,7 8,1 - 0,0
27.06.2017 16:00:00 12,0 8,8 - 0,0
27.06.2017 15:00:00 12,3 8,7 - 0,0
27.06.2017 14:00:00 12,1 8,4 - 0,0
27.06.2017 13:00:00 11,5 8,0 - 0,0
27.06.2017 12:00:00 10,9 8,0 - 0,0
27.06.2017 11:00:00 10,6 7,7 - 0,0
27.06.2017 10:00:00 10,9 8,1 - 0,0
27.06.2017 09:00:00 10,4 7,7 - 0,0
27.06.2017 08:00:00 9,5 6,9 - 0,0
27.06.2017 07:00:00 9,4 7,4 - 0,0
27.06.2017 06:00:00 9,2 7,2 - 0,0
27.06.2017 05:00:00 8,9 7,1 - 0,0
27.06.2017 04:00:00 8,9 7,2 - 0,0
27.06.2017 03:00:00 8,9 6,9 - 0,0
27.06.2017 02:00:00 8,6 6,7 - 0,0
27.06.2017 01:00:00 8,4 6,7 - 0,0
27.06.2017 00:00:00 8,7 6,5 - 0,0
26.06.2017 23:00:00 9,5 7,3 - 0,0
26.06.2017 22:00:00 9,9 7,1 - 0,0
26.06.2017 21:00:00 10,5 6,3 - 0,0
26.06.2017 20:00:00 11,0 6,8 - 0,0
26.06.2017 19:00:00 11,5 7,7 - 0,0
26.06.2017 18:00:00 11,7 7,1 - 0,0
26.06.2017 17:00:00 12,7 7,8 - 0,0
26.06.2017 16:00:00 12,0 7,7 - 0,0
26.06.2017 15:00:00 12,9 9,4 - 0,2
26.06.2017 14:00:00 10,5 8,3 - 0,2
26.06.2017 13:00:00 10,2 8,6 - 0,0
26.06.2017 12:00:00 11,1 7,6 - 0,0
26.06.2017 11:00:00 10,7 8,6 - 0,2
26.06.2017 10:00:00 9,9 8,8 - 0,2
26.06.2017 09:00:00 9,6 8,5 - 0,0
26.06.2017 08:00:00 9,3 8,4 - 0,0
26.06.2017 07:00:00 8,8 8,2 - 0,0
26.06.2017 06:00:00 8,1 7,9 - 0,2
26.06.2017 05:00:00 6,8 6,3 - 0,0
26.06.2017 04:00:00 8,9 8,4 - 0,0
26.06.2017 03:00:00 9,3 8,8 - 0,8
26.06.2017 02:00:00 9,4 8,8 - 0,0
26.06.2017 01:00:00 8,8 8,0 - 0,0
26.06.2017 00:00:00 9,5 8,4 - 0,2
25.06.2017 23:00:00 9,4 8,3 - 0,0
25.06.2017 22:00:00 9,9 8,1 - 0,0
25.06.2017 21:00:00 10,5 8,2 - 0,0
25.06.2017 20:00:00 11,3 7,5 - 0,0
25.06.2017 19:00:00 11,3 7,9 - 0,0
25.06.2017 18:00:00 11,6 6,9 - 0,0
25.06.2017 17:00:00 12,6 8,0 - 0,0
25.06.2017 16:00:00 12,4 6,9 - 0,0
25.06.2017 15:00:00 11,9 8,0 - 0,0
25.06.2017 14:00:00 11,1 7,7 - 0,8
25.06.2017 13:00:00 10,8 8,0 - 0,0
25.06.2017 12:00:00 13,6 10,1 - 0,0
25.06.2017 11:00:00 10,5 8,4 - 0,0
25.06.2017 10:00:00 11,0 7,6 - 0,0
25.06.2017 09:00:00 10,8 6,7 - 0,0
25.06.2017 08:00:00 10,3 7,6 - 0,0
25.06.2017 07:00:00 10,0 7,6 - 0,0
25.06.2017 06:00:00 9,5 7,3 - 0,0
25.06.2017 05:00:00 9,6 8,6 - 0,0
25.06.2017 04:00:00 9,5 8,2 - 0,0
25.06.2017 03:00:00 9,4 8,4 - 0,0
25.06.2017 02:00:00 9,4 8,8 - 0,6
25.06.2017 01:00:00 9,2 8,7 - 0,4
25.06.2017 00:00:00 8,6 8,4 - 1,4
24.06.2017 23:00:00 9,8 8,7 - 0,0
24.06.2017 22:00:00 9,9 9,5 - 1,0
24.06.2017 21:00:00 9,4 9,2 - 1,4
24.06.2017 20:00:00 9,5 9,3 - 3,6
24.06.2017 19:00:00 9,3 8,8 - 2,4
24.06.2017 18:00:00 9,8 8,4 - 0,6
24.06.2017 17:00:00 10,7 7,6 - 0,0
24.06.2017 16:00:00 11,0 6,1 - 0,0
24.06.2017 15:00:00 12,1 7,7 - 0,0
24.06.2017 14:00:00 11,8 7,5 - 0,0
24.06.2017 13:00:00 11,1 8,5 - 0,2
24.06.2017 12:00:00 10,3 8,4 - 0,4
24.06.2017 11:00:00 10,6 8,9 - 2,2
24.06.2017 10:00:00 9,5 7,7 - 0,4
24.06.2017 09:00:00 10,2 7,3 - 0,0
24.06.2017 08:00:00 10,0 6,8 - 0,2
24.06.2017 07:00:00 9,2 7,2 - 0,4
24.06.2017 06:00:00 8,7 6,5 - 0,6
24.06.2017 05:00:00 9,2 7,0 - 0,2
24.06.2017 04:00:00 8,4 7,4 - 3,0
24.06.2017 03:00:00 9,2 6,7 - 0,6
24.06.2017 02:00:00 10,0 6,8 - 0,2
24.06.2017 01:00:00 9,4 6,8 - 0,8
24.06.2017 00:00:00 10,7 5,8 - 0,0
23.06.2017 23:00:00 10,4 6,7 - 0,0
23.06.2017 22:00:00 9,9 7,0 10 0,4
23.06.2017 21:00:00 10,9 6,8 - 0,0
23.06.2017 20:00:00 11,3 6,0 - 0,0
23.06.2017 19:00:00 12,0 5,7 - 0,0
23.06.2017 18:00:00 11,8 5,9 - 0,0
23.06.2017 17:00:00 12,8 6,5 - 0,0
23.06.2017 16:00:00 13,6 8,0 - 0,0
23.06.2017 15:00:00 13,5 8,2 - 0,0
23.06.2017 14:00:00 13,4 7,6 - 0,0
23.06.2017 13:00:00 13,0 7,8 - 0,0
23.06.2017 12:00:00 12,8 7,9 - 0,0
23.06.2017 11:00:00 12,5 8,4 - 0,0
23.06.2017 10:00:00 11,7 9,3 - 0,0
23.06.2017 09:00:00 11,4 10,2 - 0,4
23.06.2017 08:00:00 12,3 10,0 - 0,4
23.06.2017 07:00:00 12,9 11,5 - 0,6
23.06.2017 06:00:00 13,7 11,4 - 0,2
23.06.2017 05:00:00 13,3 11,3 - 0,2
23.06.2017 04:00:00 13,0 10,7 - 0,0
23.06.2017 03:00:00 13,0 10,3 - 0,0
23.06.2017 02:00:00 12,8 10,3 - 0,2
23.06.2017 01:00:00 12,4 10,5 - 0,0
23.06.2017 00:00:00 11,6 10,5 - 0,2
22.06.2017 23:00:00 11,8 10,0 - 0,2

tt = Temperatura
td = dewpoint
vv = visibility
rr = precipitazioni

Stazioni seguenti

WeatherPro
AMSI
MeteoEarth